^^
Datos históricos de la estación: Murcia-Puente Tocinos
Diario Informe para Septiembre 5, 2019 Unidades:  Métrico    Ingés   Ambas
Diario Semanal Mensual Anual
  Máxima: Mínima: Promedio:
Temperatura: 32.9 °C 23.4 °C 27.6 °C
Punto de rocio: 21.8 °C 18.6 °C 20.1 °C
Humedad: 84% 43% 65%
Velocidad viento: 20.9km/h 1.6km/h 8.4km/h
Racha viento: 35.4km/h - -
Viento- - SE
Presión: 1015.6 hPa 1011.3 hPa -
Precipitación: 0.0 mm    
 
 
Tabla de datos para Septiembre 5, 2019
Hora Temperatura Punto de rocio Presión Viento Velocidad viento Racha viento Humedad Intensidad lluvia(por hora) Nubes
00:00 25.2 °C 21.5 °C 1015.5 hPa NE 8 km/h 9.7 km/h 80% 0.0 mm
00:05 25.2 °C 21.5 °C 1015.6 hPa NE 8 km/h 9.7 km/h 80% 0.0 mm
00:10 25.1 °C 21.4 °C 1015.6 hPa ENE 5.8 km/h 7.6 km/h 80% 0.0 mm
00:15 25.1 °C 21.4 °C 1015.6 hPa NE 4.8 km/h 8 km/h 80% 0.0 mm
00:20 25.1 °C 21.4 °C 1015.5 hPa NE 3.2 km/h 8 km/h 80% 0.0 mm
00:25 25.1 °C 21.4 °C 1015.5 hPa NNE 4.7 km/h 5.6 km/h 80% 0.0 mm
00:30 25.2 °C 21.5 °C 1015.5 hPa NNO 4.7 km/h 5.6 km/h 80% 0.0 mm
00:35 25.2 °C 21.5 °C 1015.4 hPa North 3.2 km/h 6.4 km/h 80% 0.0 mm
00:40 25.2 °C 21.5 °C 1015.4 hPa NNE 2.9 km/h 5.6 km/h 80% 0.0 mm
00:45 25.2 °C 21.5 °C 1015.4 hPa NE 3.2 km/h 8 km/h 80% 0.0 mm
00:50 25.1 °C 21.6 °C 1015.5 hPa ENE 4.7 km/h 7.4 km/h 81% 0.0 mm
00:55 25 °C 21.7 °C 1015.5 hPa NE 3.2 km/h 9.7 km/h 82% 0.0 mm
01:00 25 °C 21.7 °C 1015.5 hPa North 4.8 km/h 8 km/h 82% 0.0 mm
01:05 24.9 °C 21.6 °C 1015.2 hPa NNO 4.8 km/h 8 km/h 82% 0.0 mm
01:10 24.9 °C 21.6 °C 1015.2 hPa North 4.7 km/h 3.7 km/h 82% 0.0 mm
01:15 24.9 °C 21.6 °C 1015.2 hPa NNO 3.2 km/h 9.7 km/h 82% 0.0 mm
01:20 24.9 °C 21.8 °C 1015.1 hPa NNE 4.7 km/h 11.1 km/h 83% 0.0 mm
01:25 24.8 °C 21.7 °C 1015.1 hPa North 3.2 km/h 11.3 km/h 83% 0.0 mm
01:30 24.8 °C 21.7 °C 1015.1 hPa NNE 4.8 km/h 8 km/h 83% 0.0 mm
01:35 24.7 °C 21.8 °C 1015.0 hPa NNE 4.8 km/h 8 km/h 84% 0.0 mm
01:40 24.7 °C 21.8 °C 1015.0 hPa NNE 5 km/h 3.7 km/h 84% 0.0 mm
01:45 24.7 °C 21.8 °C 1015.0 hPa NNE 4.8 km/h 8 km/h 84% 0.0 mm
01:50 24.6 °C 21.7 °C 1015.0 hPa NNE 3.2 km/h 8 km/h 84% 0.0 mm
01:55 24.6 °C 21.7 °C 1015.0 hPa NNE 3.2 km/h 4.8 km/h 84% 0.0 mm
02:00 24.6 °C 21.7 °C 1015.0 hPa North 3.2 km/h 11.3 km/h 84% 0.0 mm
02:05 24.6 °C 21.7 °C 1014.8 hPa NO 3.2 km/h 11.3 km/h 84% 0.0 mm
02:10 24.5 °C 21.6 °C 1014.8 hPa ONO 8 km/h 12.9 km/h 84% 0.0 mm
02:15 24.4 °C 21.5 °C 1014.8 hPa ONO 8 km/h 8 km/h 84% 0.0 mm
02:20 24.4 °C 21.5 °C 1014.7 hPa NO 3.2 km/h 9.7 km/h 84% 0.0 mm
02:25 24.4 °C 21.5 °C 1014.7 hPa NNE 4.7 km/h 9.3 km/h 84% 0.0 mm
02:30 24.4 °C 21.3 °C 1014.7 hPa NNO 5.8 km/h 3.9 km/h 83% 0.0 mm
02:35 24.4 °C 21.3 °C 1014.6 hPa NO 4.8 km/h 8 km/h 83% 0.0 mm
02:40 24.3 °C 21.2 °C 1014.6 hPa NO 4.7 km/h 9.3 km/h 83% 0.0 mm
02:45 24.3 °C 21.2 °C 1014.6 hPa ONO 3.2 km/h 9.7 km/h 83% 0.0 mm
02:50 24.4 °C 21.1 °C 1014.5 hPa ONO 3.2 km/h 8 km/h 82% 0.0 mm
02:55 24.4 °C 21.1 °C 1014.5 hPa ONO 3.2 km/h 8 km/h 82% 0.0 mm
03:00 24.4 °C 21.1 °C 1014.5 hPa Oeste 3.2 km/h 9.7 km/h 82% 0.0 mm
03:05 24.4 °C 21.1 °C 1014.6 hPa SO 3.2 km/h 9.7 km/h 82% 0.0 mm
03:10 24.4 °C 21.1 °C 1014.6 hPa OSO 4.7 km/h 3.7 km/h 82% 0.0 mm
03:15 24.5 °C 21 °C 1014.6 hPa Oeste 3.2 km/h 9.7 km/h 81% 0.0 mm
03:20 24.5 °C 21 °C 1014.2 hPa NO 4.7 km/h   81% 0.0 mm
03:25 24.5 °C 21 °C 1014.2 hPa ONO 3.2 km/h 8 km/h 81% 0.0 mm
03:30 24.4 °C 20.9 °C 1014.2 hPa ONO 3.9 km/h 9.3 km/h 81% 0.0 mm
03:35 24.4 °C 21.1 °C 1014.0 hPa ONO 3.2 km/h 11.3 km/h 82% 0.0 mm
03:40 24.3 °C 21.1 °C 1014.0 hPa Oeste 6.4 km/h 11.1 km/h 82% 0.0 mm
03:45 24.3 °C 21 °C 1014.0 hPa Oeste 8 km/h 11.3 km/h 82% 0.0 mm
03:50 24.2 °C 20.9 °C 1014.1 hPa Oeste 6.4 km/h 6.9 km/h 82% 0.0 mm
03:55 24.2 °C 21.1 °C 1014.1 hPa ONO 8 km/h 9.7 km/h 83% 0.0 mm
04:00 24.2 °C 21.1 °C 1014.1 hPa ONO 3.2 km/h 8 km/h 83% 0.0 mm
04:05 24.2 °C 21.1 °C 1014.6 hPa OSO 3.2 km/h 9.7 km/h 83% 0.0 mm
04:10 24.2 °C 20.9 °C 1014.6 hPa SO 5.8 km/h 7.4 km/h 82% 0.0 mm
04:15 24.2 °C 20.9 °C 1014.6 hPa OSO 4.8 km/h 8 km/h 82% 0.0 mm
04:20 24.2 °C 20.9 °C 1014.2 hPa Oeste 3.2 km/h 4.7 km/h 82% 0.0 mm
04:25 24.2 °C 20.7 °C 1014.2 hPa Oeste 3.2 km/h 8 km/h 81% 0.0 mm
04:30 24.2 °C 20.7 °C 1014.2 hPa SO 4.7 km/h   81% 0.0 mm
04:35 24.2 °C 20.7 °C 1014.0 hPa OSO 3.2 km/h 6.4 km/h 81% 0.0 mm
04:40 24.3 °C 20.8 °C 1014.0 hPa Oeste 1.6 km/h 4.8 km/h 81% 0.0 mm
04:45 24.3 °C 20.8 °C 1014.0 hPa NO 1.6 km/h 6.4 km/h 81% 0.0 mm
04:50 24.2 °C 20.7 °C 1014.1 hPa Oeste 2.9 km/h 5.6 km/h 81% 0.0 mm
04:55 24.2 °C 20.7 °C 1014.1 hPa OSO 3.2 km/h 9.7 km/h 81% 0.0 mm
05:00 24.1 °C 20.6 °C 1014.1 hPa OSO 4.8 km/h 11.3 km/h 81% 0.0 mm
05:05 24.1 °C 20.6 °C 1014.0 hPa SO 4.8 km/h 9.7 km/h 81% 0.0 mm
05:10 24.1 °C 20.6 °C 1014.0 hPa OSO 5.8 km/h 5.6 km/h 81% 0.0 mm
05:15 24.1 °C 20.6 °C 1014.0 hPa SO 4.8 km/h 8 km/h 81% 0.0 mm
05:20 24 °C 20.3 °C 1014.0 hPa SSO 4.8 km/h 9.7 km/h 80% 0.0 mm
05:25 23.9 °C 20.2 °C 1014.0 hPa Sur 4.8 km/h 11.3 km/h 80% 0.0 mm
05:30 23.9 °C 20.2 °C 1014.0 hPa SSE 6.9 km/h 7.4 km/h 80% 0.0 mm
05:35 23.8 °C 20.2 °C 1013.8 hPa Sur 8 km/h 8 km/h 80% 0.0 mm
05:40 23.8 °C 20.2 °C 1013.8 hPa SSE 5 km/h 9.3 km/h 80% 0.0 mm
05:45 23.8 °C 20.2 °C 1013.8 hPa SSE 4.8 km/h 9.7 km/h 80% 0.0 mm
05:50 23.8 °C 20.2 °C 1014.2 hPa Sur 3.2 km/h 9.7 km/h 80% 0.0 mm
05:55 23.8 °C 20.2 °C 1014.2 hPa Sur 3.2 km/h 8 km/h 80% 0.0 mm
06:00 23.8 °C 19.9 °C 1014.2 hPa SSO 3.2 km/h 4.8 km/h 79% 0.0 mm
06:05 23.8 °C 19.9 °C 1014.2 hPa SSO 3.2 km/h 8 km/h 79% 0.0 mm
06:10 23.8 °C 19.9 °C 1014.2 hPa SSO 2.9 km/h   79% 0.0 mm
06:15 23.8 °C 19.9 °C 1014.2 hPa SO 3.2 km/h 9.7 km/h 79% 0.0 mm
06:20 23.9 °C 19.8 °C 1014.3 hPa SO 4.7 km/h 11.1 km/h 78% 0.0 mm
06:25 23.9 °C 19.8 °C 1014.3 hPa SO 3.2 km/h 11.3 km/h 78% 0.0 mm
06:30 23.9 °C 19.8 °C 1014.3 hPa ONO 5.8 km/h 7.4 km/h 78% 0.0 mm
06:35 23.8 °C 19.7 °C 1014.4 hPa Oeste 4.8 km/h 9.7 km/h 78% 0.0 mm
06:40 23.7 °C 19.6 °C 1014.4 hPa Oeste 4.8 km/h 9.7 km/h 78% 0.0 mm
06:45 23.6 °C 19.6 °C 1014.4 hPa ONO 4.8 km/h 4.8 km/h 78% 0.0 mm
06:50 23.6 °C 19.6 °C 1014.6 hPa ONO 1.6 km/h 8 km/h 78% 0.0 mm
06:55 23.5 °C 19.4 °C 1014.6 hPa ONO 1.6 km/h 8 km/h 78% 0.0 mm
07:00 23.5 °C 19.4 °C 1014.6 hPa Oeste 3.2 km/h 6.4 km/h 78% 0.0 mm
07:05 23.6 °C 19.6 °C 1015.0 hPa Sur 3.9 km/h 9.3 km/h 78% 0.0 mm
07:10 23.6 °C 19.6 °C 1015.0 hPa SSE 5.8 km/h 11.1 km/h 78% 0.0 mm
07:15 23.5 °C 19.7 °C 1015.0 hPa Sur 4.8 km/h 11.3 km/h 79% 0.0 mm
07:20 23.4 °C 19.6 °C 1014.9 hPa Sur 5 km/h 7.4 km/h 79% 0.0 mm
07:25 23.4 °C 19.6 °C 1014.9 hPa Sur 4.8 km/h 8 km/h 79% 0.0 mm
07:30 23.4 °C 19.6 °C 1014.9 hPa Sur 3.2 km/h 3.7 km/h 79% 0.0 mm
07:35 23.5 °C 19.4 °C 1015.1 hPa SSO 3.2 km/h 7.4 km/h 78% 0.0 mm
07:40 23.5 °C 19.4 °C 1015.1 hPa Oeste 4.7 km/h 7.4 km/h 78% 0.0 mm
07:45 23.6 °C 19.6 °C 1015.1 hPa ONO 3.2 km/h 8 km/h 78% 0.0 mm
07:50 23.7 °C 19.6 °C 1015.1 hPa NO 3.2 km/h 1.9 km/h 78% 0.0 mm
07:55 23.8 °C 19.5 °C 1015.1 hPa NO 3.2 km/h 8 km/h 77% 0.0 mm
08:00 23.8 °C 19.5 °C 1015.1 hPa NO 3.2 km/h 8 km/h 77% 0.0 mm
08:05 23.9 °C 19.4 °C 1015.0 hPa NO 3.2 km/h 8 km/h 76% 0.0 mm
08:10 23.9 °C 19.2 °C 1015.0 hPa NO 3.2 km/h 8 km/h 75% 0.0 mm
08:15 24 °C 19.3 °C 1015.0 hPa ONO 3.2 km/h 4.8 km/h 75% 0.0 mm
08:20 24.1 °C 19.2 °C 1015.3 hPa ONO 3.2 km/h 8 km/h 74% 0.0 mm
08:25 24.2 °C 19.3 °C 1015.3 hPa ONO 3.2 km/h 8 km/h 74% 0.0 mm
08:30 24.2 °C 19.3 °C 1015.3 hPa ONO 3.9 km/h 5.6 km/h 74% 0.0 mm
08:35 24.2 °C 19.1 °C 1015.1 hPa ONO 3.9 km/h 7.4 km/h 73% 0.0 mm
08:40 24.2 °C 19.1 °C 1015.1 hPa Oeste 4.7 km/h 9.3 km/h 73% 0.0 mm
08:45 24.3 °C 19.2 °C 1015.1 hPa ONO 3.2 km/h 9.7 km/h 73% 0.0 mm
08:50 24.4 °C 19.2 °C 1015.2 hPa Oeste 3.9 km/h 3.7 km/h 73% 0.0 mm
08:55 24.5 °C 19.3 °C 1015.2 hPa Oeste 3.2 km/h 8 km/h 73% 0.0 mm
09:00 24.6 °C 19.4 °C 1015.2 hPa ONO 3.2 km/h 8 km/h 73% 0.0 mm
09:05 24.7 °C 19.3 °C 1015.2 hPa NO 3.2 km/h 8 km/h 72% 0.0 mm
09:10 24.8 °C 19.4 °C 1015.2 hPa NO 3.9 km/h   72% 0.0 mm
09:15 24.9 °C 19.3 °C 1015.2 hPa NO 3.2 km/h 3.2 km/h 71% 0.0 mm
09:20 25.1 °C 19.4 °C 1015.3 hPa SSE 2.3 km/h 3.9 km/h 71% 0.0 mm
09:25 25.2 °C 19.3 °C 1015.3 hPa SO 1.6 km/h 8 km/h 70% 0.0 mm
09:30 25.4 °C 19.6 °C 1015.3 hPa NO 3.2 km/h 5.6 km/h 70% 0.0 mm
09:35 25.5 °C 19.4 °C 1015.4 hPa SSO 3.2 km/h 11.3 km/h 69% 0.0 mm
09:40 25.4 °C 19.3 °C 1015.4 hPa SO 6.4 km/h 11.1 km/h 69% 0.0 mm
09:45 25.4 °C 19.3 °C 1015.4 hPa Sur 8 km/h 11.3 km/h 69% 0.0 mm
09:50 25.6 °C 19.4 °C 1015.2 hPa Sur 8 km/h 11.3 km/h 69% 0.0 mm
09:55 25.7 °C 19.6 °C 1015.2 hPa Sur 8 km/h 11.3 km/h 69% 0.0 mm
10:00 25.6 °C 19.5 °C 1015.2 hPa Sur 8 km/h 9.7 km/h 69% 0.0 mm
10:05 25.8 °C 19.7 °C 1015.1 hPa SE 8 km/h 8 km/h 69% 0.0 mm
10:10 26.1 °C 19.7 °C 1015.1 hPa SSE 3.2 km/h 12.9 km/h 68% 0.0 mm
10:15 26.1 °C 19.7 °C 1015.1 hPa OSO 3.2 km/h 11.3 km/h 68% 0.0 mm
10:20 26.1 °C 19.7 °C 1015.2 hPa SSO 8 km/h 11.3 km/h 68% 0.0 mm
10:25 26.2 °C 19.8 °C 1015.2 hPa SSE 8 km/h 11.3 km/h 68% 0.0 mm
10:30 26.4 °C 19.8 °C 1015.2 hPa SSE 3.2 km/h 14.5 km/h 67% 0.0 mm
10:35 26.4 °C 19.6 °C 1015.3 hPa SSE 3.2 km/h 12.9 km/h 66% 0.0 mm
10:40 26.4 °C 19.6 °C 1015.3 hPa Sur 8 km/h 12.9 km/h 66% 0.0 mm
10:45 26.6 °C 19.7 °C 1015.3 hPa Sur 8 km/h 9.7 km/h 66% 0.0 mm
10:50 26.8 °C 19.7 °C 1015.2 hPa SO 4.7 km/h 7.4 km/h 65% 0.0 mm
10:55 27 °C 19.6 °C 1015.2 hPa SSE 3.2 km/h 14.5 km/h 64% 0.0 mm
11:00 26.9 °C 19.6 °C 1015.2 hPa SSO 4.8 km/h 8 km/h 64% 0.0 mm
11:05 27.3 °C 19.6 °C 1015.1 hPa Sur 4.8 km/h 11.3 km/h 63% 0.0 mm
11:10 27.4 °C 19.7 °C 1015.1 hPa SE 5 km/h 8.7 km/h 63% 0.0 mm
11:15 27.6 °C 19.7 °C 1015.1 hPa SE 4.8 km/h 12.9 km/h 62% 0.0 mm
11:20 27.4 °C 19.2 °C 1015.0 hPa ESE 8 km/h 12.9 km/h 61% 0.0 mm
11:25 27.6 °C 19.7 °C 1015.0 hPa Este 8 km/h 11.3 km/h 62% 0.0 mm
11:30 27.8 °C 19.3 °C 1015.0 hPa SE 6.9 km/h 11.1 km/h 60% 0.0 mm
11:35 27.8 °C 19.3 °C 1015.0 hPa ESE 8 km/h 14.5 km/h 60% 0.0 mm
11:40 27.9 °C 19.7 °C 1015.0 hPa NNE 6.9 km/h 7.4 km/h 61% 0.0 mm
11:45 28.2 °C 19.1 °C 1015.0 hPa ESE 8 km/h 12.9 km/h 58% 0.0 mm
11:50 28.2 °C 19.2 °C 1015.1 hPa North 6.4 km/h 9.3 km/h 58% 0.0 mm
11:55 28.2 °C 19.2 °C 1015.1 hPa NE 8 km/h 9.7 km/h 58% 0.0 mm
12:00 28.4 °C 19.3 °C 1015.1 hPa NNE 4.8 km/h 11.3 km/h 58% 0.0 mm
12:05 28.7 °C 19.6 °C 1015.0 hPa NNE 4.8 km/h 9.7 km/h 58% 0.0 mm
12:10 28.7 °C 19.1 °C 1015.0 hPa NNO 4.8 km/h 9.7 km/h 56% 0.0 mm
12:15 28.8 °C 19.2 °C 1015.0 hPa SE 5 km/h 7.4 km/h 56% 0.0 mm
12:20 29.1 °C 18.8 °C 1014.9 hPa ENE 5 km/h 11.1 km/h 54% 0.0 mm
12:25 29.1 °C 18.8 °C 1014.9 hPa NNE 4.8 km/h 11.3 km/h 54% 0.0 mm
12:30 29.2 °C 18.6 °C 1014.9 hPa NNE 6.4 km/h 9.3 km/h 53% 0.0 mm
12:35 29.3 °C 18.7 °C 1014.8 hPa NNE 8 km/h 11.3 km/h 53% 0.0 mm
12:40 29.3 °C 19.1 °C 1014.8 hPa NE 8 km/h 19.3 km/h 54% 0.0 mm
12:45 29.2 °C 19.2 °C 1014.8 hPa NNE 8 km/h 19.3 km/h 55% 0.0 mm
12:50 29.4 °C 19.4 °C 1014.7 hPa NNO 7.6 km/h 10.3 km/h 55% 0.0 mm
12:55 29.6 °C 19.3 °C 1014.7 hPa NNE 8 km/h 12.9 km/h 54% 0.0 mm
13:00 29.6 °C 19.6 °C 1014.7 hPa NE 8 km/h 11.3 km/h 55% 0.0 mm
13:05 29.7 °C 19.4 °C 1014.7 hPa NE 8 km/h 19.3 km/h 54% 0.0 mm
13:10 29.8 °C 19.5 °C 1014.7 hPa NE 7.6 km/h 7.4 km/h 54% 0.0 mm
13:15 30 °C 19.7 °C 1014.7 hPa ESE 8 km/h 16.1 km/h 54% 0.0 mm
13:20 30 °C 19.7 °C 1014.5 hPa ENE 8.4 km/h 16.7 km/h 54% 0.0 mm
13:25 30.1 °C 20.1 °C 1014.5 hPa NE 8 km/h 16.1 km/h 55% 0.0 mm
13:30 30.3 °C 19.7 °C 1014.5 hPa NE 8 km/h 17.7 km/h 53% 0.0 mm
13:35 30.3 °C 19.9 °C 1014.4 hPa NNE 8 km/h 14.5 km/h 54% 0.0 mm
13:40 30.5 °C 20.2 °C 1014.4 hPa NNE 9.7 km/h 20.9 km/h 54% 0.0 mm
13:45 30.6 °C 19.9 °C 1014.4 hPa NNE 9.7 km/h 20.9 km/h 53% 0.0 mm
13:50 30.6 °C 19.9 °C 1014.2 hPa NE 9.7 km/h 16.1 km/h 53% 0.0 mm
13:55 30.8 °C 19.8 °C 1014.2 hPa NNE 9.7 km/h 17.7 km/h 52% 0.0 mm
14:00 31 °C 19.3 °C 1014.2 hPa NNE 11.3 km/h 20.9 km/h 50% 0.0 mm
14:05 31.2 °C 19.6 °C 1014.1 hPa NE 11.3 km/h 24.1 km/h 50% 0.0 mm
14:10 31.1 °C 19.4 °C 1014.1 hPa North 13 km/h 20.4 km/h 50% 0.0 mm
14:15 31.2 °C 19.9 °C 1014.1 hPa NE 13 km/h 14.8 km/h 51% 0.0 mm
14:20 31.3 °C 19.6 °C 1013.9 hPa NE 12.2 km/h 20.4 km/h 50% 0.0 mm
14:25 31.3 °C 19.9 °C 1013.9 hPa NE 12.9 km/h 27.4 km/h 51% 0.0 mm
14:30 31.3 °C 19.9 °C 1013.9 hPa NE 14.8 km/h 29.6 km/h 51% 0.0 mm
14:35 31.4 °C 19.8 °C 1013.8 hPa NE 14.5 km/h 25.7 km/h 50% 0.0 mm
14:40 31.7 °C 20 °C 1013.8 hPa NE 11.3 km/h 24.1 km/h 50% 0.0 mm
14:45 31.8 °C 20.1 °C 1013.8 hPa NE 11.3 km/h 20.9 km/h 50% 0.0 mm
14:50 31.7 °C 20 °C 1013.7 hPa ENE 13 km/h 14.8 km/h 50% 0.0 mm
14:55 31.8 °C 20.1 °C 1013.7 hPa NE 12.9 km/h 27.4 km/h 50% 0.0 mm
15:00 32.1 °C 20.1 °C 1013.7 hPa NE 12.9 km/h 24.1 km/h 49% 0.0 mm
15:05 32.3 °C 19.9 °C 1013.6 hPa NE 12.9 km/h 20.9 km/h 48% 0.0 mm
15:10 32.2 °C 19.4 °C 1013.6 hPa NNE 13.7 km/h 33.3 km/h 47% 0.0 mm
15:15 32 °C 19.6 °C 1013.6 hPa NE 12.9 km/h 33.8 km/h 48% 0.0 mm
15:20 32.1 °C 19.4 °C 1013.4 hPa NE 16.1 km/h 27.4 km/h 47% 0.0 mm
15:25 32.2 °C 19.4 °C 1013.4 hPa ESE 16.4 km/h 20.4 km/h 47% 0.0 mm
15:30 32.4 °C 19.7 °C 1013.4 hPa NNE 14.8 km/h 24.1 km/h 47% 0.0 mm
15:35 32.4 °C 19.6 °C 1013.2 hPa NE 14.5 km/h 27.4 km/h 47% 0.0 mm
15:40 32.2 °C 19.4 °C 1013.2 hPa NE 14 km/h 33.3 km/h 47% 0.0 mm
15:45 32.3 °C 19.6 °C 1013.2 hPa NE 14.5 km/h 27.4 km/h 47% 0.0 mm
15:50 32.3 °C 19.6 °C 1013.3 hPa ENE 18 km/h 20.4 km/h 47% 0.0 mm
15:55 32.5 °C 19.7 °C 1013.3 hPa NE 19.3 km/h 24.1 km/h 47% 0.0 mm
16:00 32.6 °C 19.5 °C 1013.3 hPa NE 14.5 km/h 27.4 km/h 46% 0.0 mm
16:05 32.4 °C 19.6 °C 1013.0 hPa NE 14.5 km/h 33.8 km/h 47% 0.0 mm
16:10 32.4 °C 19.3 °C 1013.0 hPa ENE 18 km/h 27.8 km/h 46% 0.0 mm
16:15 32.5 °C 19.4 °C 1013.0 hPa NE 19.3 km/h 30.6 km/h 46% 0.0 mm
16:20 32.4 °C 19.3 °C 1012.7 hPa NE 19 km/h 24.1 km/h 46% 0.0 mm
16:25 32.6 °C 19.1 °C 1012.7 hPa NE 19.3 km/h 27.4 km/h 45% 0.0 mm
16:30 32.6 °C 19.1 °C 1012.7 hPa NE 16.1 km/h 20.4 km/h 45% 0.0 mm
16:35 32.8 °C 19.3 °C 1012.6 hPa NE 16.1 km/h 27.4 km/h 45% 0.0 mm
16:40 32.7 °C 18.8 °C 1012.6 hPa NE 16.1 km/h 27.4 km/h 44% 0.0 mm
16:45 32.6 °C 18.8 °C 1012.6 hPa NE 16.1 km/h 30.6 km/h 44% 0.0 mm
16:50 32.6 °C 19.1 °C 1012.3 hPa Este 18 km/h 25.9 km/h 45% 0.0 mm
16:55 32.7 °C 18.8 °C 1012.3 hPa NE 19.3 km/h 25.7 km/h 44% 0.0 mm
17:00 32.8 °C 18.9 °C 1012.3 hPa NE 16.1 km/h 32.2 km/h 44% 0.0 mm
17:05 32.7 °C 18.8 °C 1012.2 hPa NE 16.1 km/h 25.7 km/h 44% 0.0 mm
17:10 32.9 °C 19.1 °C 1012.2 hPa NE 16.1 km/h 27.4 km/h 44% 0.0 mm
17:15 32.6 °C 18.7 °C 1012.2 hPa NE 16.1 km/h 33.8 km/h 44% 0.0 mm
17:20 32.6 °C 18.8 °C 1012.0 hPa Este 20.1 km/h 20.4 km/h 44% 0.0 mm
17:25 32.8 °C 18.6 °C 1012.0 hPa NE 20.9 km/h 27.4 km/h 43% 0.0 mm
17:30 32.6 °C 19.1 °C 1012.0 hPa NE 18.3 km/h 25.9 km/h 45% 0.0 mm
17:35 32.6 °C 19.1 °C 1011.9 hPa NE 18.3 km/h 22.2 km/h 45% 0.0 mm
17:40 32.5 °C 19.1 °C 1011.9 hPa NNE 19 km/h 24.1 km/h 45% 0.0 mm
17:45 32.6 °C 19.2 °C 1011.9 hPa NE 19.3 km/h 30.6 km/h 45% 0.0 mm
17:50 32.6 °C 19.1 °C 1011.6 hPa NNE 16.1 km/h 35.2 km/h 45% 0.0 mm
17:55 32.5 °C 19.1 °C 1011.6 hPa NE 16.1 km/h 35.4 km/h 45% 0.0 mm
18:00 32.5 °C 19.1 °C 1011.6 hPa NE 19.3 km/h 27.4 km/h 45% 0.0 mm
18:05 32.4 °C 19.3 °C 1011.9 hPa NE 19.3 km/h 27.4 km/h 46% 0.0 mm
18:10 32.4 °C 19.3 °C 1011.9 hPa NNE 18.3 km/h 33.3 km/h 46% 0.0 mm
18:15 32.2 °C 19.4 °C 1011.9 hPa NE 19.3 km/h 32.2 km/h 47% 0.0 mm
18:20 32.1 °C 19.7 °C 1011.7 hPa NNE 19.8 km/h 18.5 km/h 48% 0.0 mm
18:25 32.2 °C 19.4 °C 1011.7 hPa NE 20.9 km/h 27.4 km/h 47% 0.0 mm
18:30 32.2 °C 19.8 °C 1011.7 hPa NE 16.1 km/h 29 km/h 48% 0.0 mm
18:35 32.2 °C 19.8 °C 1011.4 hPa NE 16.1 km/h 27.4 km/h 48% 0.0 mm
18:40 32.1 °C 19.7 °C 1011.4 hPa NE 17.2 km/h 25.9 km/h 48% 0.0 mm
18:45 31.9 °C 19.6 °C 1011.4 hPa NE 16.1 km/h 29 km/h 48% 0.0 mm
18:50 31.9 °C 19.5 °C 1011.5 hPa ENE 16.4 km/h 27.8 km/h 48% 0.0 mm
18:55 31.9 °C 19.5 °C 1011.5 hPa NE 16.1 km/h 25.7 km/h 48% 0.0 mm
19:00 32.1 °C 19.7 °C 1011.5 hPa NE 14.5 km/h 25.7 km/h 48% 0.0 mm
19:05 32.1 °C 19.7 °C 1011.4 hPa NE 14.5 km/h 25.7 km/h 48% 0.0 mm
19:10 32.1 °C 19.7 °C 1011.4 hPa NE 14.5 km/h 25.7 km/h 48% 0.0 mm
19:15 32.2 °C 19.8 °C 1011.4 hPa ENE 14.5 km/h 19.3 km/h 48% 0.0 mm
19:20 32.1 °C 19.7 °C 1011.4 hPa ENE 11.1 km/h 16.7 km/h 48% 0.0 mm
19:25 32.1 °C 19 °C 1011.4 hPa ENE 11.3 km/h 20.9 km/h 46% 0.0 mm
19:30 32.1 °C 19.4 °C 1011.4 hPa Este 10.3 km/h 10 km/h 47% 0.0 mm
19:35 32.1 °C 19.4 °C 1011.3 hPa ESE 11.3 km/h 11.3 km/h 47% 0.0 mm
19:40 31.9 °C 18.8 °C 1011.3 hPa ESE 8.7 km/h 20.4 km/h 46% 0.0 mm
19:45 31.8 °C 19.1 °C 1011.3 hPa ESE 9.7 km/h 19.3 km/h 47% 0.0 mm
19:50 31.7 °C 19 °C 1011.4 hPa ESE 11.1 km/h 17.2 km/h 47% 0.0 mm
19:55 31.6 °C 18.9 °C 1011.4 hPa ESE 11.3 km/h 17.7 km/h 47% 0.0 mm
20:00 31.6 °C 19.2 °C 1011.4 hPa SE 11.3 km/h 24.1 km/h 48% 0.0 mm
20:05 31.3 °C 19.3 °C 1011.6 hPa SE 11.3 km/h 24.1 km/h 49% 0.0 mm
20:10 31.1 °C 19.4 °C 1011.6 hPa SE 14.5 km/h 27.4 km/h 50% 0.0 mm
20:15 30.8 °C 19.5 °C 1011.6 hPa ESE 14.5 km/h 22.5 km/h 51% 0.0 mm
20:20 30.6 °C 19.3 °C 1011.8 hPa ESE 15.6 km/h 24.1 km/h 51% 0.0 mm
20:25 30.5 °C 19.2 °C 1011.8 hPa ESE 14.5 km/h 24.1 km/h 51% 0.0 mm
20:30 30.3 °C 19.3 °C 1011.8 hPa SE 16.1 km/h 18.5 km/h 52% 0.0 mm
20:35 30.2 °C 19.3 °C 1012.1 hPa ESE 16.1 km/h 32.2 km/h 52% 0.0 mm
20:40 29.9 °C 19.3 °C 1012.1 hPa SE 16.1 km/h 35.4 km/h 53% 0.0 mm
20:45 29.8 °C 19.5 °C 1012.1 hPa SE 16.1 km/h 27.4 km/h 54% 0.0 mm
20:50 29.6 °C 19.3 °C 1012.7 hPa ESE 16.4 km/h 25.9 km/h 54% 0.0 mm
20:55 29.4 °C 19.7 °C 1012.7 hPa ESE 16.1 km/h 29 km/h 56% 0.0 mm
21:00 29.1 °C 20 °C 1012.7 hPa ESE 19.3 km/h 32.2 km/h 58% 0.0 mm
21:05 28.8 °C 20.3 °C 1012.7 hPa ESE 19.3 km/h 24.1 km/h 60% 0.0 mm
21:10 28.8 °C 20.6 °C 1012.7 hPa ESE 14.5 km/h 19.3 km/h 61% 0.0 mm
21:15 28.7 °C 20.7 °C 1012.7 hPa Este 14 km/h 18.5 km/h 62% 0.0 mm
21:20 28.6 °C 21.1 °C 1012.8 hPa ESE 12.2 km/h 16.7 km/h 64% 0.0 mm
21:25 28.6 °C 21.3 °C 1012.8 hPa ESE 12.9 km/h 20.9 km/h 65% 0.0 mm
21:30 28.3 °C 21.3 °C 1012.8 hPa ESE 12.2 km/h 14.8 km/h 66% 0.0 mm
21:35 28.2 °C 21.3 °C 1013.0 hPa ESE 12.9 km/h 22.5 km/h 66% 0.0 mm
21:43 28.1 °C 21.5 °C 1013.0 hPa ESE 10.3 km/h 18.5 km/h 67.5% 0.0 mm
22:00 27.7 °C 21.5 °C 1013.0 hPa ESE 10 km/h 16.7 km/h 69% 0.0 mm
22:05 27.7 °C 21.5 °C 1012.9 hPa ENE 10 km/h 13 km/h 69% 0.0 mm
22:10 27.7 °C 21.5 °C 1012.9 hPa ESE 8.4 km/h 11.1 km/h 69% 0.0 mm
22:15 27.6 °C 21.4 °C 1012.9 hPa ESE 8.4 km/h 9.3 km/h 69% 0.0 mm
22:20 27.7 °C 21.5 °C 1013.2 hPa NE 6.9 km/h 9.3 km/h 69% 0.0 mm
22:25 27.7 °C 21.5 °C 1013.2 hPa ESE 6.9 km/h 8.7 km/h 69% 0.0 mm
22:30 27.8 °C 21.6 °C 1013.2 hPa Este 5 km/h 9.3 km/h 69% 0.0 mm
22:35 27.7 °C 21.5 °C 1013.5 hPa ESE 5 km/h 3.7 km/h 69% 0.0 mm
22:40 27.7 °C 21.5 °C 1013.5 hPa NE 3.9 km/h 7.4 km/h 69% 0.0 mm
22:45 27.6 °C 21.4 °C 1013.5 hPa NE 3.9 km/h 5.6 km/h 69% 0.0 mm
22:50 27.4 °C 21.4 °C 1013.7 hPa ENE 4.7 km/h 7.4 km/h 70% 0.0 mm
22:55 27.3 °C 21.3 °C 1013.7 hPa NE 4.7 km/h 7.4 km/h 70% 0.0 mm
23:00 27.3 °C 21.6 °C 1013.7 hPa NE 5 km/h 7.4 km/h 71% 0.0 mm
23:05 27.2 °C 21.5 °C 1013.8 hPa NE 5 km/h 7.6 km/h 71% 0.0 mm
23:10 27.2 °C 21.5 °C 1013.8 hPa NNE 5.8 km/h 9.3 km/h 71% 0.0 mm
23:15 27 °C 21.5 °C 1013.8 hPa NNE 5.8 km/h 13 km/h 72% 0.0 mm
23:20 26.9 °C 21.4 °C 1013.8 hPa NNE 8.4 km/h 9.3 km/h 72% 0.0 mm
23:25 26.8 °C 21.3 °C 1013.8 hPa NNE 8.4 km/h 7.4 km/h 72% 0.0 mm
23:30 26.8 °C 21.3 °C 1013.8 hPa NE 5 km/h 7.4 km/h 72% 0.0 mm
23:35 26.8 °C 21.3 °C 1014.0 hPa NE 5 km/h 6.4 km/h 72% 0.0 mm
23:40 26.8 °C 21.3 °C 1014.0 hPa ESE 5 km/h 5.6 km/h 72% 0.0 mm
23:45 26.9 °C 21.4 °C 1014.0 hPa ESE 5 km/h 7.4 km/h 72% 0.0 mm
23:50 26.9 °C 21.4 °C 1014.1 hPa SE 5.8 km/h 11.1 km/h 72% 0.0 mm
23:55 26.8 °C 21.6 °C 1014.1 hPa SE 5.8 km/h 7.4 km/h 73% 0.0 mm
Murcia-Puente Tocinos, España
Compliments of Weather Underground - 3 mb

La estación de MeteoMurcia.com, publica sus datos en los siguientes proyectos:

Weather Underground PWS IMURCIAP2 Meteoclimatic www.awekas.at

W3Counter
Web Analytics